Weather History for Madrid, Spain

Change the Weather History Date:

Thursday, December 27, 2012

  Actual Average Record
Temperature  
Mean Temperature 35 °F -  
Max Temperature 42 °F 49 °F 57 °F (1999)
Min Temperature 28 °F 31 °F 19 °F (2001)
Degree Days  
Heating Degree Days 30    
Moisture  
Dew Point 33 °F    
Average Humidity 97    
Maximum Humidity 100    
Minimum Humidity 80    
Precipitation  
Precipitation 0.00 in 0.05 in - ()
Sea Level Pressure  
Sea Level Pressure 30.48 in    
Wind  
Wind Speed 3 mph ()    
Max Wind Speed 7 mph    
Max Gust Speed -    
Visibility 4.4 miles    
Events Fog    
Averages and records for this station are not official NWS values.
T = Trace of Precipitation, MM = Missing Value Source: Averaged Metar Reports

Daily Weather History Graph

Daily Weather History Graph

Search for Another Location

Airport:

Trip Planner

Search our weather history database for the weather conditions in past years. The results will help you decide how hot, cold, wet, or windy it might be!

Date:

Astronomy

Dec. 27, 2012 Rise Set
Actual Time 8:36 AM CET 5:54 PM CET
Civil Twilight 8:05 AM CET 6:25 PM CET
Nautical Twilight 7:31 AM CET 6:59 PM CET
Astronomical Twilight 6:58 AM CET 7:32 PM CET
Moon 5:25 PM CET (12/27) 7:36 AM CET (12/27)
Length of Visible Light 10h 19m
Length of Day
9h 18m
Waxing Gibbous, 99% of the Moon is Illuminated
Dec 27
Waxing Gibbous
Dec 28
Full
Jan 5
Last Quarter
Jan 11
New
Jan 19
First Quarter

Hourly Weather History & Observations

Time (CET) Temp. Windchill Dew Point Humidity Pressure Visibility Wind Dir Wind Speed Gust Speed Precip Events Conditions
12:00 AM 33.8 °F - 33.8 °F 100% 30.42 in - North 2.3 mph - N/A   Clear
12:30 AM 33.8 °F 30.8 °F 33.8 °F 100% 30.42 in - North 3.5 mph - N/A   Clear
1:00 AM 33 °F - 30 °F 85% 30.53 in 9 mi North 2.3 mph - -  
1:00 AM 32.0 °F - 32.0 °F 100% 30.42 in - North 2.3 mph - N/A   Clear
1:30 AM 32.0 °F 28.7 °F 32.0 °F 100% 30.42 in - North 3.5 mph - N/A   Clear
2:00 AM 32.0 °F - 32.0 °F 100% 30.42 in - North 2.3 mph - N/A   Clear
2:30 AM 32.0 °F 28.7 °F 32.0 °F 100% 30.42 in - North 3.5 mph - N/A   Clear
3:00 AM 30.2 °F 26.7 °F 30.2 °F 100% 30.42 in - NNW 3.5 mph - N/A   Clear
3:30 AM 30.2 °F - 30.2 °F 100% 30.42 in - Variable 2.3 mph - N/A   Clear
4:00 AM 30.2 °F 26.7 °F 30.2 °F 100% 30.42 in - NNW 3.5 mph - N/A   Clear
4:30 AM 28.4 °F 24.6 °F 28.4 °F 100% 30.42 in - North 3.5 mph - N/A   Clear
5:00 AM 28.4 °F 23.3 °F 28.4 °F 100% 30.42 in 6.2 mi North 4.6 mph - N/A   Partly Cloudy
5:30 AM 28.4 °F 24.6 °F 28.4 °F 100% 30.42 in 6.2 mi North 3.5 mph - N/A   Partly Cloudy
6:00 AM 28.4 °F 24.6 °F 28.4 °F 100% 30.45 in 6.2 mi NNW 3.5 mph - N/A   Scattered Clouds
6:30 AM 28.4 °F - 28.4 °F 100% 30.45 in 6.2 mi North 2.3 mph - N/A   Scattered Clouds
7:00 AM 28 °F - 26 °F 87% 30.57 in 16 mi North 2.3 mph - -   Mostly Cloudy
7:00 AM 28.4 °F - 28.4 °F 100% 30.45 in 6.2 mi North 2.3 mph - N/A   Scattered Clouds
7:30 AM 28.4 °F - 28.4 °F 100% 30.45 in 6.2 mi Variable 2.3 mph - N/A   Scattered Clouds
8:00 AM 28.4 °F 23.3 °F 28.4 °F 100% 30.45 in 6.2 mi NNE 4.6 mph - N/A   Scattered Clouds
8:30 AM 28.4 °F 24.6 °F 26.6 °F 93% 30.48 in 6.2 mi North 3.5 mph - N/A   Scattered Clouds
9:00 AM 28.4 °F - 26.6 °F 93% 30.48 in 6.2 mi Variable 2.3 mph - N/A Fog Scattered Clouds
9:07 AM 30.2 °F - 30.2 °F 100% 30.48 in 1.9 mi Calm Calm - N/A   Scattered Clouds
9:30 AM 30.2 °F - 30.2 °F 100% 30.48 in 1.9 mi Variable 1.2 mph - N/A   Scattered Clouds
10:00 AM 32.0 °F - 32.0 °F 100% 30.48 in 2.5 mi Calm Calm - N/A   Scattered Clouds
10:22 AM 32.0 °F - 32.0 °F 100% 30.51 in 6.2 mi Variable 2.3 mph - N/A Fog Patches of Fog
10:30 AM 32.0 °F - 32.0 °F 100% 30.51 in 6.2 mi Variable 2.3 mph - N/A Fog Patches of Fog
11:00 AM 35.6 °F - 33.8 °F 93% 30.51 in 6.2 mi West 1.2 mph - N/A Fog Partly Cloudy
11:30 AM 37.4 °F 34.9 °F 33.8 °F 87% 30.51 in 6.2 mi South 3.5 mph - N/A Fog Partly Cloudy
12:00 PM 37.4 °F 33.8 °F 35.6 °F 93% 30.51 in 6.2 mi SSE 4.6 mph - N/A Fog Partly Cloudy
12:30 PM 37.4 °F 32.1 °F 35.6 °F 93% 30.51 in 6.2 mi SSE 6.9 mph - N/A Fog Patches of Fog
1:00 PM 38 °F - 34 °F 80% 30.59 in 2 mi South 4.6 mph - - Fog Light Fog
1:30 PM 37.4 °F 33.8 °F 37.4 °F 100% 30.51 in 3.1 mi South 4.6 mph - N/A Fog Patches of Fog
2:00 PM 37.4 °F 33.8 °F 37.4 °F 100% 30.48 in 2.5 mi South 4.6 mph - N/A Fog Patches of Fog
2:22 PM 37.4 °F 33.8 °F 37.4 °F 100% 30.48 in 2.5 mi South 4.6 mph - N/A Fog Patches of Fog
2:30 PM 37.4 °F 32.8 °F 37.4 °F 100% 30.48 in 2.5 mi South 5.8 mph - N/A Fog Patches of Fog
3:00 PM 39.2 °F 35.0 °F 37.4 °F 93% 30.48 in 2.5 mi SSE 5.8 mph - N/A Fog Patches of Fog
3:20 PM 41.0 °F 39.0 °F 39.2 °F 93% 30.48 in - SE 3.5 mph - N/A Fog Scattered Clouds
3:30 PM 39.2 °F 37.0 °F 37.4 °F 93% 30.45 in - SE 3.5 mph - N/A   Partly Cloudy
4:00 PM 41.0 °F 38.0 °F 37.4 °F 87% 30.45 in 3.7 mi ESE 4.6 mph - N/A   Partly Cloudy
4:30 PM 41.0 °F 39.0 °F 39.2 °F 93% 30.45 in 4.3 mi ESE 3.5 mph - N/A   Partly Cloudy
5:00 PM 41.0 °F 39.0 °F 39.2 °F 93% 30.45 in 4.3 mi SE 3.5 mph - N/A   Unknown
5:30 PM 41.0 °F 39.0 °F 39.2 °F 93% 30.45 in 4.3 mi ESE 3.5 mph - N/A   Unknown
6:00 PM 39.2 °F - 37.4 °F 93% 30.48 in 3.1 mi Calm Calm - N/A   Mist
6:30 PM 37.4 °F - 37.4 °F 100% 30.48 in 2.8 mi Variable 1.2 mph - N/A   Mist
7:00 PM 37 °F - 33 °F 82% 30.56 in 1 mi Calm Calm - -   Mist
7:00 PM 37.4 °F - 37.4 °F 100% 30.48 in 2.8 mi Calm Calm - N/A   Mist
7:30 PM 37.4 °F - 37.4 °F 100% 30.48 in 2.8 mi Variable 2.3 mph - N/A   Mist
8:00 PM 37.4 °F - 37.4 °F 100% 30.48 in 2.8 mi West 1.2 mph - N/A   Mist
8:30 PM 37.4 °F - 35.6 °F 93% 30.48 in 2.2 mi SE 1.2 mph - N/A   Mist
9:00 PM 35.6 °F - 35.6 °F 100% 30.51 in 2.5 mi Variable 1.2 mph - N/A   Mist
9:30 PM 35.6 °F - 35.6 °F 100% 30.51 in 2.5 mi Variable 2.3 mph - N/A   Mist
10:00 PM 33.8 °F 30.8 °F 33.8 °F 100% 30.51 in 2.5 mi North 3.5 mph - N/A   Mist
10:30 PM 33.8 °F 28.6 °F 33.8 °F 100% 30.51 in 2.5 mi North 5.8 mph - N/A   Mist
11:00 PM 33.8 °F 30.8 °F 33.8 °F 100% 30.54 in 2.5 mi NNW 3.5 mph - N/A   Mist
11:30 PM 32.0 °F 28.7 °F 32.0 °F 100% 30.54 in 2.5 mi NNE 3.5 mph - N/A   Mist